| time (UTC) | temp C | wind direction | speed KPH | gust KPH | rain 1hr cm | rain 24hr cm | rain mn cm | humidity % | barometer mb |
| 20260503232412 | 0 | 44 | 57.9 | 72.4 | 0.00 | 0.00 | 0.00 | 81 | 811.0 |
| 20260503232305 | 0 | 43 | 69.2 | 78.9 | 0.00 | 0.00 | 0.00 | 83 | 810.5 |
| 20260503232152 | 0 | 52 | 56.3 | 69.2 | 0.00 | 0.00 | 0.00 | 80 | 810.9 |
| 20260503232042 | 0 | 52 | 56.3 | 69.2 | 0.00 | 0.00 | 0.00 | 80 | 811.0 |
| 20260503231932 | 0 | 56 | 56.3 | 66.0 | 0.00 | 0.00 | 0.00 | 80 | 810.9 |
| 20260503231823 | 0 | 48 | 56.3 | 66.0 | 0.00 | 0.00 | 0.00 | 80 | 810.9 |
| 20260503231712 | 0 | 51 | 57.9 | 67.6 | 0.00 | 0.00 | 0.00 | 79 | 811.0 |
| 20260503231602 | 0 | 44 | 61.2 | 75.6 | 0.00 | 0.00 | 0.00 | 81 | 810.9 |
| 20260503231452 | 0 | 45 | 62.8 | 74.0 | 0.00 | 0.00 | 0.00 | 82 | 810.9 |
| 20260503231342 | 0 | 45 | 64.4 | 74.0 | 0.00 | 0.00 | 0.00 | 82 | 810.9 |
| 20260503231013 | 0 | 52 | 57.9 | 67.6 | 0.00 | 0.00 | 0.00 | 79 | 810.7 |
| 20260503230902 | 0 | 51 | 64.4 | 77.2 | 0.00 | 0.00 | 0.00 | 79 | 810.7 |
| 20260503230642 | 0 | 49 | 57.9 | 66.0 | 0.00 | 0.00 | 0.00 | 79 | 811.1 |
| 20260503230533 | 0 | 49 | 56.3 | 70.8 | 0.00 | 0.00 | 0.00 | 79 | 811.0 |
| 20260503230423 | 0 | 44 | 61.2 | 70.8 | 0.00 | 0.00 | 0.00 | 80 | 810.9 |
| 20260503230312 | 0 | 53 | 61.2 | 70.8 | 0.00 | 0.00 | 0.00 | 78 | 810.7 |
| 20260503230052 | 0 | 43 | 56.3 | 69.2 | 0.00 | 0.00 | 0.00 | 79 | 811.1 |
| 20260503225942 | 0 | 42 | 64.4 | 75.6 | 0.00 | 0.00 | 0.00 | 80 | 810.6 |
| 20260503225832 | 0 | 51 | 56.3 | 70.8 | 0.00 | 0.00 | 0.00 | 80 | 810.9 |
| 20260503225722 | 0 | 56 | 59.5 | 72.4 | 0.00 | 0.00 | 0.00 | 78 | 810.7 |
| 20260503225612 | 0 | 52 | 59.5 | 72.4 | 0.00 | 0.00 | 0.00 | 79 | 810.7 |
| 20260503225503 | 0 | 56 | 64.4 | 77.2 | 0.00 | 0.00 | 0.00 | 79 | 810.7 |
| 20260503225352 | 0 | 46 | 59.5 | 72.4 | 0.00 | 0.00 | 0.00 | 79 | 811.0 |
| 20260503225242 | 0 | 46 | 67.6 | 77.2 | 0.00 | 0.00 | 0.00 | 81 | 810.9 |
| 20260503225132 | 0 | 53 | 69.2 | 82.1 | 0.00 | 0.00 | 0.00 | 80 | 810.9 |
| 20260503225022 | 0 | 63 | 53.1 | 72.4 | 0.00 | 0.00 | 0.00 | 80 | 810.9 |
| 20260503224912 | 0 | 51 | 64.4 | 80.5 | 0.00 | 0.00 | 0.00 | 80 | 810.6 |
| 20260503224802 | 0 | 48 | 61.2 | 77.2 | 0.00 | 0.00 | 0.00 | 78 | 810.9 |
| 20260503224652 | 0 | 48 | 66.0 | 78.9 | 0.00 | 0.00 | 0.00 | 78 | 810.7 |
| 20260503224542 | 0 | 40 | 59.5 | 77.2 | 0.00 | 0.00 | 0.00 | 80 | 810.6 |
| 20260503224212 | 0 | 48 | 56.3 | 70.8 | 0.00 | 0.00 | 0.00 | 80 | 811.0 |
| 20260503224102 | 0 | 45 | 64.4 | 82.1 | 0.00 | 0.00 | 0.00 | 80 | 810.5 |
| 20260503223952 | 0 | 41 | 64.4 | 82.1 | 0.00 | 0.00 | 0.00 | 77 | 810.9 |
| 20260503223842 | 0 | 43 | 61.2 | 74.0 | 0.00 | 0.00 | 0.00 | 77 | 810.9 |
| 20260503223732 | 0 | 35 | 59.5 | 85.3 | 0.00 | 0.00 | 0.00 | 77 | 811.3 |
| 20260503223512 | 0 | 40 | 56.3 | 70.8 | 0.00 | 0.00 | 0.00 | 77 | 811.0 |
| 20260503223402 | 0 | 42 | 59.5 | 74.0 | 0.00 | 0.00 | 0.00 | 76 | 811.4 |
| 20260503223252 | 0 | 42 | 51.5 | 69.2 | 0.00 | 0.00 | 0.00 | 76 | 811.4 |
| 20260503223142 | 0 | 37 | 53.1 | 70.8 | 0.00 | 0.00 | 0.00 | 76 | 811.3 |
| 20260503223032 | 0 | 40 | 59.5 | 72.4 | 0.00 | 0.00 | 0.00 | 76 | 810.9 |
| 20260503222922 | 0 | 43 | 64.4 | 77.2 | 0.00 | 0.00 | 0.00 | 76 | 810.9 |
| 20260503222812 | 0 | 41 | 61.2 | 78.9 | 0.00 | 0.00 | 0.00 | 76 | 811.3 |
| 20260503222702 | 0 | 37 | 53.1 | 62.8 | 0.00 | 0.00 | 0.00 | 76 | 811.1 |
| 20260503222552 | 0 | 40 | 56.3 | 70.8 | 0.00 | 0.00 | 0.00 | 76 | 811.3 |
| 20260503222442 | 0 | 41 | 61.2 | 70.8 | 0.00 | 0.00 | 0.00 | 76 | 811.3 |
| 20260503222332 | 0 | 40 | 56.3 | 74.0 | 0.00 | 0.00 | 0.00 | 75 | 811.0 |
| 20260503222222 | 0 | 39 | 57.9 | 74.0 | 0.00 | 0.00 | 0.00 | 75 | 811.3 |
| 20260503222112 | 0 | 40 | 54.7 | 67.6 | 0.00 | 0.00 | 0.00 | 75 | 811.3 |
| 20260503221852 | 0 | 37 | 51.5 | 67.6 | 0.00 | 0.00 | 0.00 | 74 | 811.4 |
| 20260503221742 | 0 | 42 | 57.9 | 75.6 | 0.00 | 0.00 | 0.00 | 74 | 811.3 |
| 20260503221632 | 0 | 40 | 57.9 | 74.0 | 0.00 | 0.00 | 0.00 | 74 | 811.3 |
| 20260503221522 | 0 | 39 | 57.9 | 70.8 | 0.00 | 0.00 | 0.00 | 74 | 811.0 |
| 20260503221412 | 0 | 41 | 56.3 | 78.9 | 0.00 | 0.00 | 0.00 | 74 | 811.1 |
| 20260503221302 | 0 | 42 | 56.3 | 70.8 | 0.00 | 0.00 | 0.00 | 74 | 811.3 |
| 20260503221042 | 0 | 33 | 48.3 | 62.8 | 0.00 | 0.00 | 0.00 | 74 | 811.3 |
| 20260503220932 | 0 | 38 | 57.9 | 74.0 | 0.00 | 0.00 | 0.00 | 73 | 811.3 |
| 20260503220822 | 0 | 38 | 54.7 | 70.8 | 0.00 | 0.00 | 0.00 | 73 | 811.3 |
| 20260503220602 | 0 | 38 | 49.9 | 61.2 | 0.00 | 0.00 | 0.00 | 74 | 811.3 |
| 20260503220342 | 0 | 39 | 54.7 | 67.6 | 0.00 | 0.00 | 0.00 | 73 | 811.4 |
| 20260503220232 | 0 | 36 | 51.5 | 67.6 | 0.00 | 0.00 | 0.00 | 73 | 811.3 |
| 20260503220012 | 0 | 37 | 53.1 | 70.8 | 0.00 | 0.00 | 0.00 | 73 | 811.7 |
| 20260503215902 | 0 | 37 | 53.1 | 66.0 | 0.00 | 0.00 | 0.00 | 73 | 811.3 |
| 20260503215752 | 0 | 37 | 54.7 | 70.8 | 0.00 | 0.00 | 0.00 | 73 | 811.3 |
| 20260503215642 | 0 | 37 | 53.1 | 72.4 | 0.00 | 0.00 | 0.00 | 73 | 811.3 |
| 20260503215532 | 0 | 37 | 51.5 | 67.6 | 0.00 | 0.00 | 0.00 | 74 | 811.3 |
| 20260503215312 | 0 | 35 | 53.1 | 66.0 | 0.00 | 0.00 | 0.00 | 74 | 811.7 |
| 20260503215202 | 0 | 35 | 51.5 | 72.4 | 0.00 | 0.00 | 0.00 | 74 | 811.4 |
| 20260503215052 | 0 | 36 | 56.3 | 75.6 | 0.00 | 0.00 | 0.00 | 74 | 811.3 |
| 20260503214942 | 0 | 38 | 56.3 | 72.4 | 0.00 | 0.00 | 0.00 | 74 | 811.3 |
| 20260503214722 | 0 | 42 | 56.3 | 69.2 | 0.00 | 0.00 | 0.00 | 74 | 811.7 |
| 20260503214612 | 0 | 39 | 49.9 | 64.4 | 0.00 | 0.00 | 0.00 | 74 | 811.7 |
| 20260503214502 | 0 | 41 | 49.9 | 64.4 | 0.00 | 0.00 | 0.00 | 74 | 811.4 |
| 20260503214242 | 0 | 39 | 53.1 | 62.8 | 0.00 | 0.00 | 0.00 | 73 | 811.8 |
| 20260503214132 | 0 | 41 | 56.3 | 67.6 | 0.00 | 0.00 | 0.00 | 74 | 811.5 |
| 20260503214022 | 0 | 40 | 57.9 | 70.8 | 0.00 | 0.00 | 0.00 | 73 | 811.7 |
| 20260503213912 | 0 | 40 | 59.5 | 67.6 | 0.00 | 0.00 | 0.00 | 74 | 811.7 |
| 20260503213802 | 0 | 41 | 57.9 | 67.6 | 0.00 | 0.00 | 0.00 | 74 | 811.5 |
| 20260503213652 | 0 | 40 | 57.9 | 66.0 | 0.00 | 0.00 | 0.00 | 74 | 811.7 |
| 20260503213542 | 0 | 40 | 56.3 | 70.8 | 0.00 | 0.00 | 0.00 | 73 | 811.7 |
| 20260503213432 | 0 | 42 | 57.9 | 64.4 | 0.00 | 0.00 | 0.00 | 73 | 811.5 |
| 20260503213322 | 0 | 43 | 56.3 | 62.8 | 0.00 | 0.00 | 0.00 | 74 | 811.7 |
| 20260503213212 | 0 | 41 | 56.3 | 64.4 | 0.00 | 0.00 | 0.00 | 74 | 811.7 |
| 20260503213102 | 0 | 45 | 49.9 | 59.5 | 0.00 | 0.00 | 0.00 | 73 | 811.7 |
| 20260503212952 | 0 | 43 | 54.7 | 64.4 | 0.00 | 0.00 | 0.00 | 73 | 811.7 |
| 20260503212842 | 0 | 44 | 54.7 | 67.6 | 0.00 | 0.00 | 0.00 | 73 | 811.7 |
| 20260503212732 | 0 | 44 | 56.3 | 64.4 | 0.00 | 0.00 | 0.00 | 73 | 811.5 |
| 20260503212622 | 0 | 43 | 56.3 | 64.4 | 0.00 | 0.00 | 0.00 | 73 | 811.5 |
| 20260503212512 | 0 | 44 | 54.7 | 64.4 | 0.00 | 0.00 | 0.00 | 73 | 811.5 |
| 20260503212402 | 0 | 42 | 57.9 | 66.0 | 0.00 | 0.00 | 0.00 | 73 | 811.3 |
| 20260503212252 | 0 | 43 | 59.5 | 67.6 | 0.00 | 0.00 | 0.00 | 73 | 811.4 |
| 20260503212142 | 0 | 45 | 53.1 | 62.8 | 0.00 | 0.00 | 0.00 | 72 | 811.7 |
| 20260503212032 | 0 | 44 | 59.5 | 66.0 | 0.00 | 0.00 | 0.00 | 73 | 811.5 |
| 20260503211922 | 0 | 42 | 59.5 | 67.6 | 0.00 | 0.00 | 0.00 | 73 | 811.5 |
| 20260503211812 | 0 | 46 | 53.1 | 66.0 | 0.00 | 0.00 | 0.00 | 72 | 811.8 |
| 20260503211552 | 0 | 50 | 53.1 | 64.4 | 0.00 | 0.00 | 0.00 | 72 | 811.8 |
| 20260503211442 | 0 | 48 | 51.5 | 59.5 | 0.00 | 0.00 | 0.00 | 72 | 811.8 |
| 20260503211332 | 0 | 50 | 49.9 | 59.5 | 0.00 | 0.00 | 0.00 | 72 | 811.8 |
| 20260503211112 | 0 | 45 | 49.9 | 59.5 | 0.00 | 0.00 | 0.00 | 71 | 812.1 |
| 20260503211002 | 0 | 45 | 56.3 | 66.0 | 0.00 | 0.00 | 0.00 | 72 | 811.7 |
| 20260503210852 | 0 | 44 | 56.3 | 64.4 | 0.00 | 0.00 | 0.00 | 72 | 811.7 |
| 20260503210742 | 0 | 46 | 53.1 | 64.4 | 0.00 | 0.00 | 0.00 | 71 | 811.8 |
| 20260503210632 | 0 | 46 | 53.1 | 67.6 | 0.00 | 0.00 | 0.00 | 71 | 811.8 |
| 20260503210522 | 0 | 44 | 54.7 | 64.4 | 0.00 | 0.00 | 0.00 | 70 | 811.8 |
| 20260503210412 | 0 | 44 | 51.5 | 61.2 | 0.00 | 0.00 | 0.00 | 71 | 811.7 |
| 20260503210302 | 0 | 41 | 59.5 | 66.0 | 0.00 | 0.00 | 0.00 | 71 | 811.7 |
| 20260503210152 | 0 | 41 | 59.5 | 70.8 | 0.00 | 0.00 | 0.00 | 72 | 811.7 |
| 20260503205932 | 0 | 44 | 51.5 | 59.5 | 0.00 | 0.00 | 0.00 | 71 | 811.8 |
| 20260503205822 | 0 | 42 | 51.5 | 59.5 | 0.00 | 0.00 | 0.00 | 71 | 811.8 |
| 20260503205712 | 0 | 45 | 48.3 | 59.5 | 0.00 | 0.00 | 0.00 | 71 | 811.9 |
| 20260503205602 | 0 | 42 | 53.1 | 64.4 | 0.00 | 0.00 | 0.00 | 71 | 811.8 |
| 20260503205452 | 0 | 40 | 53.1 | 64.4 | 0.00 | 0.00 | 0.00 | 70 | 811.8 |
| 20260503205342 | 0 | 42 | 53.1 | 62.8 | 0.00 | 0.00 | 0.00 | 69 | 811.7 |
| 20260503205232 | 0 | 40 | 51.5 | 61.2 | 0.00 | 0.00 | 0.00 | 70 | 811.8 |
| 20260503205012 | 0 | 43 | 53.1 | 64.4 | 0.00 | 0.00 | 0.00 | 69 | 811.8 |
| 20260503204902 | 0 | 44 | 54.7 | 64.4 | 0.00 | 0.00 | 0.00 | 69 | 811.8 |
| 20260503204642 | 0 | 42 | 53.1 | 64.4 | 0.00 | 0.00 | 0.00 | 69 | 812.1 |
| 20260503204532 | 0 | 42 | 53.1 | 66.0 | 0.00 | 0.00 | 0.00 | 68 | 812.1 |
| 20260503204422 | 0 | 42 | 54.7 | 69.2 | 0.00 | 0.00 | 0.00 | 69 | 811.9 |
| 20260503204312 | 0 | 40 | 51.5 | 62.8 | 0.00 | 0.00 | 0.00 | 68 | 812.1 |
| 20260503204202 | 0 | 40 | 49.9 | 62.8 | 0.00 | 0.00 | 0.00 | 68 | 811.8 |
| 20260503204052 | 0 | 40 | 51.5 | 67.6 | 0.00 | 0.00 | 0.00 | 68 | 812.1 |
| 20260503203942 | 0 | 38 | 49.9 | 61.2 | 0.00 | 0.00 | 0.00 | 68 | 812.1 |
| 20260503203832 | 0 | 39 | 51.5 | 61.2 | 0.00 | 0.00 | 0.00 | 69 | 812.1 |
| 20260503203722 | 0 | 42 | 53.1 | 61.2 | 0.00 | 0.00 | 0.00 | 68 | 811.8 |
| 20260503203612 | 0 | 33 | 45.1 | 57.9 | 0.00 | 0.00 | 0.00 | 68 | 812.1 |
| 20260503203352 | 0 | 33 | 43.5 | 57.9 | 0.00 | 0.00 | 0.00 | 66 | 812.1 |
| 20260503203242 | 0 | 31 | 45.1 | 59.5 | 0.00 | 0.00 | 0.00 | 67 | 811.8 |
| 20260503203132 | 0 | 33 | 46.7 | 61.2 | 0.00 | 0.00 | 0.00 | 67 | 811.9 |
| 20260503202912 | 0 | 25 | 38.6 | 54.7 | 0.00 | 0.00 | 0.00 | 66 | 812.1 |
| 20260503202802 | 0 | 26 | 40.2 | 64.4 | 0.00 | 0.00 | 0.00 | 66 | 812.1 |
| 20260503202652 | 0 | 26 | 37.0 | 59.5 | 0.00 | 0.00 | 0.00 | 66 | 812.1 |
| 20260503202432 | 0 | 23 | 38.6 | 67.6 | 0.00 | 0.00 | 0.00 | 65 | 812.1 |
| 20260503202322 | 0 | 21 | 37.0 | 59.5 | 0.00 | 0.00 | 0.00 | 65 | 812.1 |
| 20260503202212 | 0 | 23 | 37.0 | 57.9 | 0.00 | 0.00 | 0.00 | 65 | 812.1 |
| 20260503202102 | 0 | 27 | 38.6 | 54.7 | 0.00 | 0.00 | 0.00 | 65 | 812.2 |
| 20260503201952 | 0 | 22 | 37.0 | 67.6 | 0.00 | 0.00 | 0.00 | 65 | 812.2 |
| 20260503201842 | 0 | 24 | 41.8 | 61.2 | 0.00 | 0.00 | 0.00 | 66 | 812.1 |
| 20260503201622 | 0 | 16 | 37.0 | 59.5 | 0.00 | 0.00 | 0.00 | 66 | 812.2 |
| 20260503201512 | 0 | 14 | 32.2 | 59.5 | 0.00 | 0.00 | 0.00 | 66 | 812.1 |
| 20260503201252 | 0 | 14 | 38.6 | 53.1 | 0.00 | 0.00 | 0.00 | 66 | 812.2 |
| 20260503201142 | 0 | 18 | 35.4 | 53.1 | 0.00 | 0.00 | 0.00 | 66 | 812.2 |
| 20260503201032 | 0 | 15 | 33.8 | 54.7 | 0.00 | 0.00 | 0.00 | 65 | 812.3 |
| 20260503200922 | 0 | 14 | 33.8 | 53.1 | 0.00 | 0.00 | 0.00 | 66 | 812.2 |
| 20260503200812 | 0 | 16 | 33.8 | 54.7 | 0.00 | 0.00 | 0.00 | 66 | 812.2 |
| 20260503200702 | 0 | 12 | 40.2 | 51.5 | 0.00 | 0.00 | 0.00 | 66 | 812.3 |
| 20260503200552 | 0 | 14 | 40.2 | 53.1 | 0.00 | 0.00 | 0.00 | 66 | 812.2 |
| 20260503200442 | 0 | 16 | 38.6 | 54.7 | 0.00 | 0.00 | 0.00 | 66 | 812.2 |
| 20260503200332 | 0 | 14 | 35.4 | 51.5 | 0.00 | 0.00 | 0.00 | 66 | 812.3 |
| 20260503200222 | 0 | 12 | 38.6 | 51.5 | 0.00 | 0.00 | 0.00 | 65 | 812.2 |
| 20260503200002 | 0 | 12 | 37.0 | 56.3 | 0.00 | 0.00 | 0.00 | 65 | 812.2 |
| 20260503195852 | 0 | 11 | 30.6 | 51.5 | 0.00 | 0.00 | 0.00 | 66 | 812.3 |
| 20260503195742 | 0 | 12 | 33.8 | 49.9 | 0.00 | 0.00 | 0.00 | 66 | 812.6 |
| 20260503195632 | 0 | 13 | 30.6 | 48.3 | 0.00 | 0.00 | 0.00 | 66 | 812.3 |
| 20260503195522 | 0 | 12 | 32.2 | 48.3 | 0.00 | 0.00 | 0.00 | 65 | 812.5 |
| 20260503195412 | 0 | 10 | 35.4 | 48.3 | 0.00 | 0.00 | 0.00 | 65 | 812.5 |
| 20260503195304 | 0 | 13 | 33.8 | 49.9 | 0.00 | 0.00 | 0.00 | 64 | 812.3 |
| 20260503195152 | 0 | 12 | 40.2 | 51.5 | 0.00 | 0.00 | 0.00 | 64 | 812.5 |
| 20260503195042 | 0 | 10 | 37.0 | 49.9 | 0.00 | 0.00 | 0.00 | 64 | 812.6 |
| 20260503194932 | 0 | 10 | 37.0 | 46.7 | 0.00 | 0.00 | 0.00 | 64 | 812.5 |
| 20260503194712 | 0 | 16 | 35.4 | 49.9 | 0.00 | 0.00 | 0.00 | 64 | 812.6 |
| 20260503194602 | 0 | 24 | 29.0 | 46.7 | 0.00 | 0.00 | 0.00 | 64 | 812.6 |
| 20260503194452 | 0 | 19 | 30.6 | 49.9 | 0.00 | 0.00 | 0.00 | 65 | 812.6 |
| 20260503194342 | 0 | 22 | 30.6 | 43.5 | 0.00 | 0.00 | 0.00 | 65 | 812.6 |
| 20260503194232 | 0 | 21 | 25.7 | 41.8 | 0.00 | 0.00 | 0.00 | 65 | 812.6 |
| 20260503194122 | 0 | 9 | 32.2 | 43.5 | 0.00 | 0.00 | 0.00 | 65 | 812.6 |
| 20260503194012 | 0 | 8 | 37.0 | 45.1 | 0.00 | 0.00 | 0.00 | 65 | 812.6 |
| 20260503193902 | 0 | 10 | 33.8 | 43.5 | 0.00 | 0.00 | 0.00 | 65 | 812.6 |
| 20260503193752 | 0 | 10 | 33.8 | 43.5 | 0.00 | 0.00 | 0.00 | 65 | 812.6 |
| 20260503193642 | 0 | 9 | 35.4 | 43.5 | 0.00 | 0.00 | 0.00 | 66 | 812.6 |
| 20260503193532 | 0 | 9 | 37.0 | 48.3 | 0.00 | 0.00 | 0.00 | 66 | 812.6 |
| 20260503193422 | 0 | 12 | 35.4 | 46.7 | 0.00 | 0.00 | 0.00 | 66 | 812.6 |
| 20260503193312 | 0 | 12 | 29.0 | 41.8 | 0.00 | 0.00 | 0.00 | 66 | 812.7 |
| 20260503193202 | 0 | 17 | 29.0 | 40.2 | 0.00 | 0.00 | 0.00 | 66 | 812.7 |
| 20260503193052 | 0 | 14 | 29.0 | 43.5 | 0.00 | 0.00 | 0.00 | 66 | 812.7 |
| 20260503192942 | 0 | 13 | 29.0 | 43.5 | 0.00 | 0.00 | 0.00 | 66 | 813.0 |
| 20260503192832 | 0 | 10 | 32.2 | 40.2 | 0.00 | 0.00 | 0.00 | 66 | 812.7 |
| 20260503192722 | 0 | 11 | 30.6 | 46.7 | 0.00 | 0.00 | 0.00 | 66 | 812.9 |
| 20260503192612 | 0 | 11 | 30.6 | 43.5 | 0.00 | 0.00 | 0.00 | 66 | 812.9 |
| 20260503192502 | 0 | 11 | 30.6 | 43.5 | 0.00 | 0.00 | 0.00 | 66 | 812.9 |
| 20260503192242 | 0 | 8 | 32.2 | 40.2 | 0.00 | 0.00 | 0.00 | 65 | 812.9 |
| 20260503192132 | 0 | 9 | 32.2 | 41.8 | 0.00 | 0.00 | 0.00 | 66 | 812.9 |
| 20260503192022 | 0 | 5 | 32.2 | 41.8 | 0.00 | 0.00 | 0.00 | 66 | 812.9 |
| 20260503191912 | 0 | 10 | 30.6 | 40.2 | 0.00 | 0.00 | 0.00 | 65 | 812.9 |
| 20260503191802 | 0 | 12 | 30.6 | 38.6 | 0.00 | 0.00 | 0.00 | 66 | 812.9 |
| 20260503191652 | 0 | 5 | 29.0 | 37.0 | 0.00 | 0.00 | 0.00 | 66 | 813.0 |
| 20260503191432 | 0 | 5 | 30.6 | 37.0 | 0.00 | 0.00 | 0.00 | 66 | 812.9 |
| 20260503191321 | 0 | 6 | 30.6 | 37.0 | 0.00 | 0.00 | 0.00 | 66 | 812.9 |
| 20260503191212 | 0 | 4 | 32.2 | 40.2 | 0.00 | 0.00 | 0.00 | 66 | 812.7 |
| 20260503190952 | 0 | 8 | 30.6 | 38.6 | 0.00 | 0.00 | 0.00 | 66 | 813.0 |
| 20260503190842 | 0 | 14 | 30.6 | 37.0 | 0.00 | 0.00 | 0.00 | 67 | 813.0 |
| 20260503190731 | 0 | 11 | 30.6 | 38.6 | 0.00 | 0.00 | 0.00 | 67 | 813.0 |
| 20260503190621 | 0 | 4 | 33.8 | 40.2 | 0.00 | 0.00 | 0.00 | 67 | 812.9 |
| 20260503190512 | 0 | 6 | 27.4 | 33.8 | 0.00 | 0.00 | 0.00 | 67 | 813.0 |
| 20260503190142 | 0 | 9 | 35.4 | 43.5 | 0.00 | 0.00 | 0.00 | 66 | 812.7 |
| 20260503190032 | 0 | 8 | 30.6 | 40.2 | 0.00 | 0.00 | 0.00 | 66 | 813.0 |
| 20260503185922 | 0 | 7 | 27.4 | 32.2 | 0.00 | 0.00 | 0.00 | 66 | 813.0 |
| 20260503185702 | 0 | 9 | 32.2 | 38.6 | 0.00 | 0.00 | 0.00 | 67 | 813.0 |
| 20260503185442 | 0 | 9 | 29.0 | 40.2 | 0.00 | 0.00 | 0.00 | 66 | 812.9 |
| 20260503185332 | 0 | 1 | 30.6 | 40.2 | 0.00 | 0.00 | 0.00 | 66 | 813.0 |
| 20260503185222 | 0 | 8 | 37.0 | 45.1 | 0.00 | 0.00 | 0.00 | 66 | 813.0 |
| 20260503185002 | 0 | 7 | 30.6 | 41.8 | 0.00 | 0.00 | 0.00 | 65 | 813.0 |
| 20260503184852 | 0 | 0 | 27.4 | 35.4 | 0.00 | 0.00 | 0.00 | 65 | 813.0 |
| 20260503184522 | 0 | 7 | 33.8 | 41.8 | 0.00 | 0.00 | 0.00 | 66 | 812.9 |
| 20260503184412 | 0 | 8 | 37.0 | 51.5 | 0.00 | 0.00 | 0.00 | 66 | 812.7 |
| 20260503184301 | 0 | 11 | 32.2 | 43.5 | 0.00 | 0.00 | 0.00 | 66 | 812.9 |
| 20260503183932 | 0 | 8 | 29.0 | 35.4 | 0.00 | 0.00 | 0.00 | 64 | 813.0 |
| 20260503183821 | 0 | 6 | 29.0 | 37.0 | 0.00 | 0.00 | 0.00 | 64 | 813.0 |
| 20260503183712 | 0 | 2 | 25.7 | 33.8 | 0.00 | 0.00 | 0.00 | 64 | 813.0 |
| 20260503183602 | 0 | 2 | 32.2 | 40.2 | 0.00 | 0.00 | 0.00 | 64 | 812.9 |
| 20260503183452 | 0 | 358 | 25.7 | 37.0 | 0.00 | 0.00 | 0.00 | 64 | 813.0 |
| 20260503183342 | 0 | 0 | 29.0 | 37.0 | 0.00 | 0.00 | 0.00 | 64 | 813.0 |
| 20260503183122 | 0 | 0 | 27.4 | 33.8 | 0.00 | 0.00 | 0.00 | 63 | 813.0 |
| 20260503183012 | 0 | 356 | 25.7 | 32.2 | 0.00 | 0.00 | 0.00 | 63 | 813.0 |
| 20260503182752 | 0 | 358 | 24.1 | 32.2 | 0.00 | 0.00 | 0.00 | 63 | 813.0 |
| 20260503182642 | 0 | 358 | 24.1 | 32.2 | 0.00 | 0.00 | 0.00 | 63 | 813.0 |
| 20260503182532 | 0 | 3 | 24.1 | 29.0 | 0.00 | 0.00 | 0.00 | 63 | 813.0 |
| 20260503182421 | 0 | 0 | 24.1 | 29.0 | 0.00 | 0.00 | 0.00 | 63 | 813.0 |
| 20260503182202 | 0 | 0 | 25.7 | 30.6 | 0.00 | 0.00 | 0.00 | 64 | 813.0 |
| 20260503182052 | 0 | 0 | 22.5 | 27.4 | 0.00 | 0.00 | 0.00 | 64 | 813.0 |
| 20260503181942 | 0 | 1 | 24.1 | 33.8 | 0.00 | 0.00 | 0.00 | 63 | 813.0 |
| 20260503181721 | 0 | 3 | 24.1 | 33.8 | 0.00 | 0.00 | 0.00 | 63 | 813.0 |
| 20260503181612 | 0 | 5 | 22.5 | 27.4 | 0.00 | 0.00 | 0.00 | 63 | 813.0 |
| 20260503181502 | 0 | 3 | 22.5 | 27.4 | 0.00 | 0.00 | 0.00 | 63 | 813.0 |
| 20260503181352 | 0 | 2 | 22.5 | 30.6 | 0.00 | 0.00 | 0.00 | 63 | 813.0 |
| 20260503181241 | 0 | 2 | 24.1 | 30.6 | 0.00 | 0.00 | 0.00 | 63 | 813.0 |
| 20260503181132 | 0 | 356 | 22.5 | 27.4 | 0.00 | 0.00 | 0.00 | 63 | 813.1 |
| 20260503181022 | 0 | 0 | 24.1 | 30.6 | 0.00 | 0.00 | 0.00 | 63 | 813.0 |
| 20260503180912 | 0 | 2 | 25.7 | 30.6 | 0.00 | 0.00 | 0.00 | 62 | 813.0 |
| 20260503180802 | 0 | 2 | 25.7 | 30.6 | 0.00 | 0.00 | 0.00 | 62 | 813.0 |
| 20260503180652 | 0 | 4 | 29.0 | 35.4 | 0.00 | 0.00 | 0.00 | 62 | 813.0 |
| 20260503180542 | 0 | 4 | 29.0 | 33.8 | 0.00 | 0.00 | 0.00 | 62 | 813.0 |
| 20260503180432 | 0 | 3 | 30.6 | 35.4 | 0.00 | 0.00 | 0.00 | 63 | 813.0 |
| 20260503180322 | 0 | 2 | 27.4 | 35.4 | 0.00 | 0.00 | 0.00 | 63 | 813.0 |
| 20260503180212 | 0 | 4 | 25.7 | 30.6 | 0.00 | 0.00 | 0.00 | 63 | 813.0 |
| 20260503175952 | 0 | 3 | 27.4 | 33.8 | 0.00 | 0.00 | 0.00 | 63 | 813.0 |
| 20260503175842 | 0 | 8 | 25.7 | 33.8 | 0.00 | 0.00 | 0.00 | 64 | 813.0 |
| 20260503175732 | 0 | 6 | 29.0 | 33.8 | 0.00 | 0.00 | 0.00 | 64 | 813.0 |
| 20260503175622 | 0 | 8 | 29.0 | 35.4 | 0.00 | 0.00 | 0.00 | 64 | 813.0 |
| 20260503175512 | 0 | 12 | 29.0 | 37.0 | 0.00 | 0.00 | 0.00 | 64 | 812.9 |
| 20260503175402 | 0 | 13 | 30.6 | 37.0 | 0.00 | 0.00 | 0.00 | 64 | 812.9 |
| 20260503175252 | 0 | 12 | 30.6 | 37.0 | 0.00 | 0.00 | 0.00 | 64 | 812.9 |
| 20260503175032 | 0 | 10 | 29.0 | 35.4 | 0.00 | 0.00 | 0.00 | 64 | 812.9 |
| 20260503174922 | 0 | 11 | 27.4 | 33.8 | 0.00 | 0.00 | 0.00 | 64 | 813.0 |
| 20260503174812 | 0 | 10 | 29.0 | 35.4 | 0.00 | 0.00 | 0.00 | 64 | 813.0 |
| 20260503174702 | 0 | 13 | 32.2 | 38.6 | 0.00 | 0.00 | 0.00 | 64 | 812.9 |
| 20260503174552 | 0 | 12 | 29.0 | 37.0 | 0.00 | 0.00 | 0.00 | 64 | 812.9 |
| 20260503174332 | 0 | 10 | 32.2 | 38.6 | 0.00 | 0.00 | 0.00 | 65 | 812.9 |
| 20260503174222 | 0 | 13 | 25.7 | 35.4 | 0.00 | 0.00 | 0.00 | 64 | 812.9 |
| 20260503174112 | 0 | 11 | 24.1 | 30.6 | 0.00 | 0.00 | 0.00 | 64 | 813.0 |
| 20260503174002 | 0 | 9 | 30.6 | 37.0 | 0.00 | 0.00 | 0.00 | 64 | 812.9 |
| 20260503173852 | 0 | 11 | 29.0 | 37.0 | 0.00 | 0.00 | 0.00 | 64 | 813.0 |
| 20260503173632 | 0 | 9 | 30.6 | 37.0 | 0.00 | 0.00 | 0.00 | 64 | 812.9 |
| 20260503173412 | 0 | 13 | 27.4 | 33.8 | 0.00 | 0.00 | 0.00 | 64 | 812.9 |
| 20260503173302 | 0 | 11 | 25.7 | 32.2 | 0.00 | 0.00 | 0.00 | 64 | 813.0 |
| 20260503173152 | 0 | 11 | 30.6 | 37.0 | 0.00 | 0.00 | 0.00 | 64 | 812.9 |
| 20260503173042 | 0 | 13 | 25.7 | 32.2 | 0.00 | 0.00 | 0.00 | 64 | 813.0 |
| 20260503172932 | 0 | 11 | 30.6 | 37.0 | 0.00 | 0.00 | 0.00 | 64 | 812.9 |
| 20260503172712 | 0 | 13 | 30.6 | 40.2 | 0.00 | 0.00 | 0.00 | 64 | 812.9 |
| 20260503172602 | 0 | 15 | 27.4 | 37.0 | 0.00 | 0.00 | 0.00 | 64 | 812.9 |
| 20260503172452 | 0 | 15 | 29.0 | 37.0 | 0.00 | 0.00 | 0.00 | 63 | 812.9 |
| 20260503172342 | 0 | 8 | 24.1 | 32.2 | 0.00 | 0.00 | 0.00 | 64 | 812.9 |
| 20260503172232 | 0 | 11 | 27.4 | 35.4 | 0.00 | 0.00 | 0.00 | 63 | 813.0 |
| 20260503172122 | 0 | 16 | 24.1 | 33.8 | 0.00 | 0.00 | 0.00 | 63 | 812.9 |
| 20260503172012 | 0 | 16 | 24.1 | 32.2 | 0.00 | 0.00 | 0.00 | 63 | 812.9 |
| 20260503171902 | 0 | 17 | 27.4 | 32.2 | 0.00 | 0.00 | 0.00 | 63 | 812.9 |
| 20260503171642 | 0 | 16 | 25.7 | 32.2 | 0.00 | 0.00 | 0.00 | 63 | 813.0 |
| 20260503171422 | 0 | 17 | 22.5 | 30.6 | 0.00 | 0.00 | 0.00 | 64 | 813.0 |
| 20260503171312 | 0 | 14 | 27.4 | 32.2 | 0.00 | 0.00 | 0.00 | 64 | 812.9 |
| 20260503171202 | 0 | 14 | 27.4 | 32.2 | 0.00 | 0.00 | 0.00 | 64 | 812.9 |
| 20260503171052 | 0 | 12 | 22.5 | 32.2 | 0.00 | 0.00 | 0.00 | 64 | 813.0 |
| 20260503170942 | 0 | 13 | 27.4 | 33.8 | 0.00 | 0.00 | 0.00 | 64 | 813.0 |
| 20260503170832 | 0 | 15 | 27.4 | 32.2 | 0.00 | 0.00 | 0.00 | 64 | 813.0 |
| 20260503170722 | 0 | 16 | 24.1 | 30.6 | 0.00 | 0.00 | 0.00 | 64 | 813.0 |
| 20260503170612 | 0 | 13 | 24.1 | 29.0 | 0.00 | 0.00 | 0.00 | 64 | 813.0 |
| 20260503170501 | 0 | 10 | 27.4 | 32.2 | 0.00 | 0.00 | 0.00 | 64 | 813.0 |
| 20260503170352 | 0 | 10 | 25.7 | 30.6 | 0.00 | 0.00 | 0.00 | 64 | 813.0 |
| 20260503170242 | 0 | 8 | 25.7 | 32.2 | 0.00 | 0.00 | 0.00 | 64 | 813.0 |
| 20260503170132 | 0 | 6 | 24.1 | 29.0 | 0.00 | 0.00 | 0.00 | 64 | 813.0 |
| 20260503160201 | 0 | 31 | 19.3 | 29.0 | 0.00 | 0.00 | 0.00 | 58 | 812.9 |
| 20260503150932 | 1 | 14 | 29.0 | 49.9 | 0.00 | 0.00 | 0.00 | 52 | 812.9 |
| 20260503150822 | 1 | 15 | 30.6 | 45.1 | 0.00 | 0.00 | 0.00 | 51 | 812.6 |
| 20260503150602 | 1 | 57 | 33.8 | 41.8 | 0.00 | 0.00 | 0.00 | 49 | 812.9 |
| 20260503150451 | 1 | 46 | 41.8 | 53.1 | 0.00 | 0.00 | 0.00 | 52 | 812.6 |
| 20260503150341 | 1 | 20 | 24.1 | 43.5 | 0.00 | 0.00 | 0.00 | 52 | 812.7 |
| 20260503150121 | 1 | 35 | 37.0 | 46.7 | 0.00 | 0.00 | 0.00 | 50 | 812.7 |
| 20260503140301 | 0 | 38 | 33.8 | 41.8 | 0.00 | 0.00 | 0.00 | 48 | 813.3 |
| 20260503140151 | 0 | 41 | 33.8 | 43.5 | 0.00 | 0.00 | 0.00 | 48 | 813.1 |
| 20260503131252 | 0 | 32 | 12.9 | 22.5 | 0.00 | 0.00 | 0.00 | 59 | 813.8 |
| 20260503131141 | 0 | 358 | 11.3 | 16.1 | 0.00 | 0.00 | 0.00 | 58 | 813.8 |
| 20260503131031 | 0 | 350 | 11.3 | 16.1 | 0.00 | 0.00 | 0.00 | 57 | 813.8 |
| 20260503130921 | 0 | 347 | 16.1 | 20.9 | 0.00 | 0.00 | 0.00 | 62 | 813.8 |
| 20260503130812 | 0 | 12 | 14.5 | 22.5 | 0.00 | 0.00 | 0.00 | 58 | 813.8 |
| 20260503130701 | 0 | 28 | 17.7 | 29.0 | 0.00 | 0.00 | 0.00 | 58 | 813.8 |
| 20260503130551 | 0 | 21 | 17.7 | 30.6 | 0.00 | 0.00 | 0.00 | 58 | 813.8 |
| 20260503130441 | 0 | 18 | 20.9 | 30.6 | 0.00 | 0.00 | 0.00 | 65 | 813.8 |
| 20260503130331 | 0 | 3 | 17.7 | 27.4 | 0.00 | 0.00 | 0.00 | 64 | 813.8 |
| 20260503130221 | 0 | 5 | 17.7 | 22.5 | 0.00 | 0.00 | 0.00 | 60 | 813.8 |
| 20260503120141 | 0 | 51 | 20.9 | 24.1 | 0.00 | 0.00 | 0.00 | 60 | 813.9 |
| 20260503110651 | -1 | 22 | 16.1 | 22.5 | 0.00 | 0.00 | 0.00 | 65 | 814.2 |
| 20260503110431 | 0 | 34 | 24.1 | 32.2 | 0.00 | 0.00 | 0.00 | 67 | 814.2 |
| 20260503110321 | 0 | 38 | 16.1 | 20.9 | 0.00 | 0.00 | 0.00 | 67 | 814.2 |
| 20260503110211 | 0 | 16 | 20.9 | 27.4 | 0.00 | 0.00 | 0.00 | 70 | 814.2 |
| 20260503100241 | -1 | 45 | 27.4 | 38.6 | 0.00 | 0.00 | 0.00 | 67 | 814.2 |
| 20260503100131 | -1 | 42 | 14.5 | 33.8 | 0.00 | 0.00 | 0.00 | 66 | 814.3 |
| 20260503090421 | -2 | 27 | 12.9 | 20.9 | 0.00 | 0.00 | 0.00 | 70 | 814.2 |
| 20260503090201 | -2 | 60 | 12.9 | 22.5 | 0.00 | 0.00 | 0.00 | 70 | 814.2 |
| 20260503081631 | -3 | 38 | 20.9 | 27.4 | 0.00 | 0.00 | 0.00 | 71 | 813.8 |
| 20260503081521 | -3 | 46 | 27.4 | 33.8 | 0.00 | 0.00 | 0.00 | 74 | 813.8 |
| 20260503081411 | -3 | 23 | 17.7 | 29.0 | 0.00 | 0.00 | 0.00 | 76 | 813.8 |
| 20260503081301 | -3 | 35 | 17.7 | 29.0 | 0.00 | 0.00 | 0.00 | 76 | 813.8 |
| 20260503081151 | -3 | 20 | 16.1 | 24.1 | 0.00 | 0.00 | 0.00 | 76 | 813.8 |
| 20260503080821 | -3 | 39 | 24.1 | 32.2 | 0.00 | 0.00 | 0.00 | 74 | 813.8 |
| 20260503080711 | -3 | 42 | 20.9 | 29.0 | 0.00 | 0.00 | 0.00 | 74 | 813.8 |
| 20260503080601 | -2 | 53 | 16.1 | 20.9 | 0.00 | 0.00 | 0.00 | 74 | 813.8 |
| 20260503080451 | -2 | 101 | 19.3 | 30.6 | 0.00 | 0.00 | 0.00 | 76 | 813.9 |
| 20260503080341 | -3 | 87 | 14.5 | 22.5 | 0.00 | 0.00 | 0.00 | 77 | 813.8 |
| 20260503080231 | -3 | 79 | 14.5 | 20.9 | 0.00 | 0.00 | 0.00 | 76 | 813.8 |
| 20260503080120 | -3 | 31 | 12.9 | 22.5 | 0.00 | 0.00 | 0.00 | 75 | 813.9 |
| 20260503072731 | -3 | 46 | 16.1 | 24.1 | 0.00 | 0.00 | 0.00 | 76 | 813.7 |
| 20260503072621 | -3 | 55 | 19.3 | 25.7 | 0.00 | 0.00 | 0.00 | 76 | 813.7 |
| 20260503072512 | -3 | 67 | 19.3 | 24.1 | 0.00 | 0.00 | 0.00 | 76 | 813.7 |
| 20260503072401 | -3 | 65 | 17.7 | 20.9 | 0.00 | 0.00 | 0.00 | 76 | 813.7 |
| 20260503072251 | -4 | 50 | 19.3 | 24.1 | 0.00 | 0.00 | 0.00 | 76 | 813.5 |
| 20260503072141 | -4 | 69 | 17.7 | 22.5 | 0.00 | 0.00 | 0.00 | 76 | 813.5 |
| 20260503072031 | -4 | 67 | 20.9 | 29.0 | 0.00 | 0.00 | 0.00 | 75 | 813.5 |
| 20260503071921 | -4 | 62 | 24.1 | 30.6 | 0.00 | 0.00 | 0.00 | 76 | 813.5 |
| 20260503071700 | -4 | 94 | 17.7 | 25.7 | 0.00 | 0.00 | 0.00 | 76 | 813.7 |
| 20260503071551 | -4 | 83 | 19.3 | 29.0 | 0.00 | 0.00 | 0.00 | 77 | 813.5 |
| 20260503071440 | -4 | 75 | 19.3 | 25.7 | 0.00 | 0.00 | 0.00 | 77 | 813.5 |
| 20260503071331 | -3 | 90 | 17.7 | 27.4 | 0.00 | 0.00 | 0.00 | 78 | 813.5 |
| 20260503071221 | -4 | 91 | 20.9 | 27.4 | 0.00 | 0.00 | 0.00 | 79 | 813.7 |
| 20260503071111 | -4 | 83 | 24.1 | 33.8 | 0.00 | 0.00 | 0.00 | 80 | 813.4 |
| 20260503071001 | -4 | 58 | 22.5 | 30.6 | 0.00 | 0.00 | 0.00 | 79 | 813.4 |
| 20260503070741 | -4 | 55 | 17.7 | 22.5 | 0.00 | 0.00 | 0.00 | 79 | 813.5 |
| 20260503070631 | -4 | 59 | 17.7 | 20.9 | 0.00 | 0.00 | 0.00 | 80 | 813.5 |
| 20260503070411 | -4 | 52 | 24.1 | 35.4 | 0.00 | 0.00 | 0.00 | 80 | 813.4 |
| 20260503070300 | -4 | 67 | 19.3 | 27.4 | 0.00 | 0.00 | 0.00 | 79 | 813.4 |
| 20260503060331 | -5 | 70 | 27.4 | 33.8 | 0.00 | 0.00 | 0.00 | 76 | 813.0 |
| 20260503060111 | -5 | 65 | 33.8 | 40.2 | 0.00 | 0.00 | 0.00 | 76 | 812.9 |
| 20260503055040 | -5 | 47 | 40.2 | 51.5 | 0.00 | 0.00 | 0.00 | 76 | 812.6 |
| 20260503054820 | -5 | 60 | 35.4 | 45.1 | 0.00 | 0.00 | 0.00 | 76 | 812.9 |
| 20260503054711 | -5 | 59 | 33.8 | 43.5 | 0.00 | 0.00 | 0.00 | 75 | 812.6 |
| 20260503054601 | -5 | 55 | 37.0 | 46.7 | 0.00 | 0.00 | 0.00 | 76 | 812.6 |
| 20260503054450 | -5 | 79 | 24.1 | 30.6 | 0.00 | 0.00 | 0.00 | 75 | 812.9 |
| 20260503054340 | -5 | 82 | 30.6 | 43.5 | 0.00 | 0.00 | 0.00 | 77 | 812.7 |
| 20260503054230 | -5 | 78 | 27.4 | 38.6 | 0.00 | 0.00 | 0.00 | 77 | 812.9 |
| 20260503054121 | -5 | 79 | 29.0 | 43.5 | 0.00 | 0.00 | 0.00 | 77 | 813.0 |
| 20260503053750 | -5 | 99 | 24.1 | 33.8 | 0.00 | 0.00 | 0.00 | 78 | 813.0 |
| 20260503053530 | -5 | 80 | 24.1 | 32.2 | 0.00 | 0.00 | 0.00 | 78 | 812.9 |
| 20260503053311 | -5 | 105 | 29.0 | 41.8 | 0.00 | 0.00 | 0.00 | 78 | 812.9 |
| 20260503053201 | -5 | 99 | 33.8 | 46.7 | 0.00 | 0.00 | 0.00 | 78 | 812.7 |
| 20260503053050 | -5 | 87 | 35.4 | 45.1 | 0.00 | 0.00 | 0.00 | 77 | 812.7 |
| 20260503052941 | -5 | 92 | 37.0 | 48.3 | 0.00 | 0.00 | 0.00 | 77 | 812.7 |
| 20260503052720 | -5 | 83 | 32.2 | 40.2 | 0.00 | 0.00 | 0.00 | 80 | 812.7 |
| 20260503052611 | -5 | 83 | 30.6 | 40.2 | 0.00 | 0.00 | 0.00 | 80 | 812.7 |
| 20260503052351 | -5 | 84 | 35.4 | 45.1 | 0.00 | 0.00 | 0.00 | 78 | 812.6 |
| 20260503052240 | -5 | 82 | 35.4 | 43.5 | 0.00 | 0.00 | 0.00 | 79 | 812.6 |
| 20260503052020 | -5 | 93 | 40.2 | 46.7 | 0.00 | 0.00 | 0.00 | 80 | 812.6 |
| 20260503051911 | -5 | 84 | 33.8 | 51.5 | 0.00 | 0.00 | 0.00 | 80 | 812.7 |
| 20260503051801 | -5 | 91 | 37.0 | 48.3 | 0.00 | 0.00 | 0.00 | 80 | 812.6 |
| 20260503051541 | -5 | 88 | 37.0 | 54.7 | 0.00 | 0.00 | 0.00 | 81 | 812.6 |
| 20260503051430 | -5 | 89 | 37.0 | 53.1 | 0.00 | 0.00 | 0.00 | 79 | 812.5 |
| 20260503051321 | -5 | 80 | 38.6 | 46.7 | 0.00 | 0.00 | 0.00 | 79 | 812.5 |
| 20260503051211 | -5 | 92 | 35.4 | 46.7 | 0.00 | 0.00 | 0.00 | 81 | 812.6 |
| 20260503050951 | -5 | 87 | 37.0 | 48.3 | 0.00 | 0.00 | 0.00 | 81 | 812.5 |
| 20260503050841 | -5 | 83 | 38.6 | 51.5 | 0.00 | 0.00 | 0.00 | 80 | 812.3 |
| 20260503050730 | -5 | 81 | 37.0 | 43.5 | 0.00 | 0.00 | 0.00 | 82 | 812.5 |
| 20260503050620 | -5 | 87 | 37.0 | 49.9 | 0.00 | 0.00 | 0.00 | 82 | 812.6 |
| 20260503050510 | -5 | 88 | 37.0 | 45.1 | 0.00 | 0.00 | 0.00 | 82 | 812.6 |
| 20260503050401 | -5 | 84 | 35.4 | 49.9 | 0.00 | 0.00 | 0.00 | 82 | 812.5 |
| 20260503050250 | -5 | 83 | 33.8 | 41.8 | 0.00 | 0.00 | 0.00 | 81 | 812.6 |
| 20260503050141 | -5 | 90 | 33.8 | 43.5 | 0.00 | 0.00 | 0.00 | 81 | 812.6 |
| 20260503050031 | -5 | 96 | 33.8 | 43.5 | 0.00 | 0.00 | 0.00 | 82 | 812.6 |
| 20260503045811 | -5 | 88 | 35.4 | 46.7 | 0.00 | 0.00 | 0.00 | 82 | 812.5 |
| 20260503045700 | -5 | 94 | 35.4 | 43.5 | 0.00 | 0.00 | 0.00 | 81 | 812.5 |
| 20260503045440 | -5 | 88 | 35.4 | 49.9 | 0.00 | 0.00 | 0.00 | 83 | 812.6 |
| 20260503045331 | -5 | 90 | 35.4 | 46.7 | 0.00 | 0.00 | 0.00 | 84 | 812.5 |
| 20260503045220 | -5 | 87 | 35.4 | 45.1 | 0.00 | 0.00 | 0.00 | 83 | 812.5 |
| 20260503045001 | -6 | 93 | 32.2 | 43.5 | 0.00 | 0.00 | 0.00 | 83 | 812.5 |
| 20260503044741 | -6 | 95 | 35.4 | 49.9 | 0.00 | 0.00 | 0.00 | 82 | 812.3 |
| 20260503044630 | -6 | 87 | 33.8 | 43.5 | 0.00 | 0.00 | 0.00 | 83 | 812.3 |
| 20260503044520 | -6 | 88 | 37.0 | 49.9 | 0.00 | 0.00 | 0.00 | 83 | 812.3 |
| 20260503044150 | -6 | 86 | 33.8 | 43.5 | 0.00 | 0.00 | 0.00 | 83 | 812.6 |
| 20260503044040 | -6 | 87 | 35.4 | 46.7 | 0.00 | 0.00 | 0.00 | 83 | 812.3 |
| 20260503043930 | -6 | 86 | 35.4 | 45.1 | 0.00 | 0.00 | 0.00 | 86 | 812.3 |
| 20260503043821 | -6 | 93 | 35.4 | 43.5 | 0.00 | 0.00 | 0.00 | 83 | 812.5 |
| 20260503043711 | -6 | 90 | 35.4 | 43.5 | 0.00 | 0.00 | 0.00 | 84 | 812.2 |
| 20260503043601 | -6 | 97 | 33.8 | 45.1 | 0.00 | 0.00 | 0.00 | 86 | 812.3 |
| 20260503043450 | -6 | 84 | 35.4 | 41.8 | 0.00 | 0.00 | 0.00 | 86 | 812.2 |
| 20260503043340 | -6 | 96 | 37.0 | 51.5 | 0.00 | 0.00 | 0.00 | 85 | 812.2 |
| 20260503043230 | -6 | 89 | 37.0 | 46.7 | 0.00 | 0.00 | 0.00 | 85 | 812.2 |
| 20260503043010 | -6 | 89 | 35.4 | 46.7 | 0.00 | 0.00 | 0.00 | 86 | 812.2 |
| 20260503042901 | -6 | 89 | 37.0 | 46.7 | 0.00 | 0.00 | 0.00 | 87 | 812.2 |
| 20260503042750 | -6 | 88 | 38.6 | 45.1 | 0.00 | 0.00 | 0.00 | 88 | 812.2 |
| 20260503042530 | -6 | 87 | 37.0 | 48.3 | 0.00 | 0.00 | 0.00 | 86 | 812.2 |
| 20260503042421 | -6 | 83 | 33.8 | 40.2 | 0.00 | 0.00 | 0.00 | 85 | 812.2 |
| 20260503042310 | -6 | 88 | 38.6 | 46.7 | 0.00 | 0.00 | 0.00 | 86 | 812.2 |
| 20260503042200 | -6 | 85 | 38.6 | 51.5 | 0.00 | 0.00 | 0.00 | 86 | 812.2 |
| 20260503041941 | -6 | 86 | 38.6 | 48.3 | 0.00 | 0.00 | 0.00 | 86 | 812.2 |
| 20260503041720 | -6 | 85 | 38.6 | 48.3 | 0.00 | 0.00 | 0.00 | 87 | 812.2 |
| 20260503041500 | -6 | 91 | 33.8 | 49.9 | 0.00 | 0.00 | 0.00 | 86 | 812.2 |
| 20260503041240 | -6 | 83 | 33.8 | 53.1 | 0.00 | 0.00 | 0.00 | 87 | 812.2 |
| 20260503041130 | -6 | 81 | 35.4 | 41.8 | 0.00 | 0.00 | 0.00 | 87 | 812.2 |
| 20260503041020 | -6 | 90 | 37.0 | 45.1 | 0.00 | 0.00 | 0.00 | 88 | 812.2 |
| 20260503040910 | -6 | 92 | 38.6 | 51.5 | 0.00 | 0.00 | 0.00 | 88 | 812.1 |
| 20260503040800 | -6 | 87 | 35.4 | 41.8 | 0.00 | 0.00 | 0.00 | 89 | 812.2 |
| 20260503040650 | -6 | 91 | 35.4 | 49.9 | 0.00 | 0.00 | 0.00 | 90 | 812.1 |
| 20260503040540 | -6 | 91 | 38.6 | 51.5 | 0.00 | 0.00 | 0.00 | 90 | 812.2 |
| 20260503040431 | -6 | 102 | 37.0 | 53.1 | 0.00 | 0.00 | 0.00 | 90 | 812.2 |
| 20260503040210 | -6 | 81 | 33.8 | 45.1 | 0.00 | 0.00 | 0.00 | 92 | 812.2 |
| 20260503040100 | -6 | 90 | 35.4 | 49.9 | 0.00 | 0.00 | 0.00 | 92 | 812.1 |
| 20260503035950 | -6 | 99 | 33.8 | 48.3 | 0.00 | 0.00 | 0.00 | 91 | 812.1 |
| 20260503035841 | -6 | 97 | 35.4 | 56.3 | 0.00 | 0.00 | 0.00 | 91 | 812.1 |
| 20260503035730 | -6 | 93 | 35.4 | 51.5 | 0.00 | 0.00 | 0.00 | 92 | 812.2 |
| 20260503035620 | -6 | 94 | 35.4 | 49.9 | 0.00 | 0.00 | 0.00 | 92 | 812.1 |
| 20260503035510 | -6 | 86 | 35.4 | 46.7 | 0.00 | 0.00 | 0.00 | 92 | 811.8 |
| 20260503035401 | -6 | 97 | 38.6 | 51.5 | 0.00 | 0.00 | 0.00 | 92 | 812.1 |
| 20260503035250 | -6 | 81 | 37.0 | 46.7 | 0.00 | 0.00 | 0.00 | 92 | 811.8 |
| 20260503035140 | -6 | 87 | 33.8 | 48.3 | 0.00 | 0.00 | 0.00 | 93 | 812.1 |
| 20260503035031 | -6 | 84 | 38.6 | 53.1 | 0.00 | 0.00 | 0.00 | 94 | 812.1 |
| 20260503034920 | -6 | 87 | 35.4 | 49.9 | 0.00 | 0.00 | 0.00 | 93 | 812.1 |
| 20260503034810 | -6 | 88 | 33.8 | 51.5 | 0.00 | 0.00 | 0.00 | 93 | 812.1 |
| 20260503034700 | -6 | 92 | 32.2 | 46.7 | 0.00 | 0.00 | 0.00 | 93 | 812.1 |
| 20260503034550 | -6 | 79 | 33.8 | 43.5 | 0.00 | 0.00 | 0.00 | 93 | 812.1 |
| 20260503034441 | -6 | 95 | 32.2 | 41.8 | 0.00 | 0.00 | 0.00 | 94 | 812.1 |
| 20260503034331 | -6 | 108 | 33.8 | 51.5 | 0.00 | 0.00 | 0.00 | 94 | 812.1 |
| 20260503034110 | -6 | 83 | 33.8 | 51.5 | 0.00 | 0.00 | 0.00 | 93 | 812.1 |
| 20260503034000 | -6 | 107 | 29.0 | 45.1 | 0.00 | 0.00 | 0.00 | 93 | 812.1 |
| 20260503033740 | -6 | 88 | 33.8 | 46.7 | 0.00 | 0.00 | 0.00 | 94 | 811.9 |
| 20260503033630 | -6 | 96 | 33.8 | 49.9 | 0.00 | 0.00 | 0.00 | 94 | 812.1 |
| 20260503033520 | -6 | 88 | 37.0 | 45.1 | 0.00 | 0.00 | 0.00 | 94 | 811.8 |
| 20260503033410 | -6 | 95 | 37.0 | 46.7 | 0.00 | 0.00 | 0.00 | 94 | 812.1 |
| 20260503033300 | -6 | 82 | 37.0 | 43.5 | 0.00 | 0.00 | 0.00 | 95 | 811.8 |
| 20260503032931 | -6 | 103 | 40.2 | 51.5 | 0.00 | 0.00 | 0.00 | 95 | 812.1 |
| 20260503032820 | -6 | 72 | 35.4 | 41.8 | 0.00 | 0.00 | 0.00 | 95 | 811.8 |
| 20260503032710 | -6 | 85 | 33.8 | 40.2 | 0.00 | 0.00 | 0.00 | 94 | 811.9 |
| 20260503032600 | -6 | 92 | 37.0 | 49.9 | 0.00 | 0.00 | 0.00 | 94 | 811.8 |
| 20260503032450 | -6 | 83 | 35.4 | 48.3 | 0.00 | 0.00 | 0.00 | 94 | 811.8 |
| 20260503032340 | -6 | 92 | 33.8 | 46.7 | 0.00 | 0.00 | 0.00 | 94 | 811.9 |
| 20260503032230 | -6 | 106 | 30.6 | 48.3 | 0.00 | 0.00 | 0.00 | 94 | 811.9 |
| 20260503032120 | -6 | 79 | 32.2 | 38.6 | 0.00 | 0.00 | 0.00 | 93 | 811.8 |
| 20260503032010 | -6 | 80 | 33.8 | 41.8 | 0.00 | 0.00 | 0.00 | 93 | 811.8 |
| 20260503031901 | -6 | 93 | 29.0 | 43.5 | 0.00 | 0.00 | 0.00 | 94 | 811.8 |
| 20260503031750 | -6 | 83 | 35.4 | 49.9 | 0.00 | 0.00 | 0.00 | 94 | 811.8 |
| 20260503031530 | -6 | 84 | 32.2 | 40.2 | 0.00 | 0.00 | 0.00 | 94 | 812.1 |
| 20260503031420 | -6 | 86 | 32.2 | 45.1 | 0.00 | 0.00 | 0.00 | 93 | 811.9 |
| 20260503031311 | -6 | 93 | 33.8 | 49.9 | 0.00 | 0.00 | 0.00 | 93 | 811.9 |
| 20260503031200 | -6 | 94 | 35.4 | 51.5 | 0.00 | 0.00 | 0.00 | 93 | 812.1 |
| 20260503030940 | -6 | 88 | 35.4 | 43.5 | 0.00 | 0.00 | 0.00 | 92 | 811.8 |
| 20260503030830 | -6 | 91 | 37.0 | 46.7 | 0.00 | 0.00 | 0.00 | 94 | 811.8 |
| 20260503030720 | -6 | 90 | 37.0 | 48.3 | 0.00 | 0.00 | 0.00 | 95 | 811.9 |
| 20260503030610 | -6 | 91 | 37.0 | 54.7 | 0.00 | 0.00 | 0.00 | 94 | 811.8 |
| 20260503030500 | -6 | 89 | 35.4 | 53.1 | 0.00 | 0.00 | 0.00 | 94 | 811.8 |
| 20260503030351 | -6 | 95 | 38.6 | 49.9 | 0.00 | 0.00 | 0.00 | 94 | 811.8 |
| 20260503030240 | -6 | 90 | 33.8 | 46.7 | 0.00 | 0.00 | 0.00 | 94 | 811.8 |
| 20260503030130 | -6 | 89 | 37.0 | 45.1 | 0.00 | 0.00 | 0.00 | 95 | 811.8 |
| 20260503025910 | -6 | 90 | 33.8 | 43.5 | 0.00 | 0.00 | 0.00 | 95 | 811.8 |
| 20260503025801 | -6 | 97 | 33.8 | 49.9 | 0.00 | 0.00 | 0.00 | 95 | 811.9 |
| 20260503025540 | -6 | 100 | 33.8 | 53.1 | 0.00 | 0.00 | 0.00 | 95 | 811.8 |
| 20260503025430 | -6 | 90 | 37.0 | 53.1 | 0.00 | 0.00 | 0.00 | 94 | 811.8 |
| 20260503025320 | -6 | 88 | 33.8 | 53.1 | 0.00 | 0.00 | 0.00 | 95 | 811.9 |
| 20260503025210 | -6 | 91 | 35.4 | 45.1 | 0.00 | 0.00 | 0.00 | 96 | 811.8 |
| 20260503025100 | -6 | 94 | 37.0 | 49.9 | 0.00 | 0.00 | 0.00 | 95 | 811.8 |
| 20260503024950 | -6 | 95 | 37.0 | 48.3 | 0.00 | 0.00 | 0.00 | 94 | 811.8 |
| 20260503024840 | -6 | 92 | 37.0 | 54.7 | 0.00 | 0.00 | 0.00 | 95 | 811.8 |
| 20260503024730 | -6 | 85 | 37.0 | 48.3 | 0.00 | 0.00 | 0.00 | 94 | 811.7 |
| 20260503024620 | -6 | 90 | 33.8 | 43.5 | 0.00 | 0.00 | 0.00 | 94 | 811.7 |
| 20260503024510 | -6 | 88 | 38.6 | 51.5 | 0.00 | 0.00 | 0.00 | 95 | 811.7 |
| 20260503024250 | -6 | 86 | 38.6 | 48.3 | 0.00 | 0.00 | 0.00 | 95 | 811.7 |
| 20260503024030 | -6 | 86 | 32.2 | 49.9 | 0.00 | 0.00 | 0.00 | 97 | 811.8 |
| 20260503023811 | -6 | 79 | 37.0 | 45.1 | 0.00 | 0.00 | 0.00 | 96 | 811.5 |
| 20260503023701 | -6 | 94 | 35.4 | 45.1 | 0.00 | 0.00 | 0.00 | 96 | 811.8 |
| 20260503023550 | -6 | 93 | 32.2 | 43.5 | 0.00 | 0.00 | 0.00 | 95 | 811.8 |
| 20260503023440 | -6 | 91 | 32.2 | 46.7 | 0.00 | 0.00 | 0.00 | 95 | 811.8 |
| 20260503023330 | -6 | 98 | 38.6 | 51.5 | 0.00 | 0.00 | 0.00 | 95 | 811.8 |
| 20260503023220 | -6 | 92 | 35.4 | 48.3 | 0.00 | 0.00 | 0.00 | 95 | 811.8 |
| 20260503023110 | -6 | 84 | 35.4 | 48.3 | 0.00 | 0.00 | 0.00 | 94 | 811.8 |
| 20260503023001 | -6 | 92 | 33.8 | 46.7 | 0.00 | 0.00 | 0.00 | 94 | 811.8 |
| 20260503022742 | -6 | 91 | 38.6 | 53.1 | 0.00 | 0.00 | 0.00 | 94 | 811.8 |
| 20260503022520 | -6 | 92 | 35.4 | 45.1 | 0.00 | 0.00 | 0.00 | 94 | 811.8 |
| 20260503022410 | -6 | 91 | 37.0 | 49.9 | 0.00 | 0.00 | 0.00 | 94 | 811.8 |
| 20260503022300 | -6 | 87 | 33.8 | 41.8 | 0.00 | 0.00 | 0.00 | 94 | 811.8 |
| 20260503022150 | -6 | 99 | 37.0 | 53.1 | 0.00 | 0.00 | 0.00 | 93 | 811.8 |
| 20260503021931 | -6 | 93 | 33.8 | 48.3 | 0.00 | 0.00 | 0.00 | 93 | 811.8 |
| 20260503021711 | -6 | 85 | 38.6 | 51.5 | 0.00 | 0.00 | 0.00 | 93 | 811.8 |
| 20260503021600 | -6 | 97 | 40.2 | 56.3 | 0.00 | 0.00 | 0.00 | 93 | 811.8 |
| 20260503021450 | -6 | 94 | 35.4 | 46.7 | 0.00 | 0.00 | 0.00 | 93 | 811.8 |
| 20260503021340 | -6 | 87 | 38.6 | 53.1 | 0.00 | 0.00 | 0.00 | 93 | 811.8 |
| 20260503021230 | -6 | 95 | 38.6 | 53.1 | 0.00 | 0.00 | 0.00 | 92 | 811.8 |
| 20260503021121 | -6 | 103 | 40.2 | 57.9 | 0.00 | 0.00 | 0.00 | 92 | 811.8 |
| 20260503021011 | -6 | 91 | 35.4 | 45.1 | 0.00 | 0.00 | 0.00 | 93 | 811.8 |
| 20260503020901 | -6 | 83 | 38.6 | 48.3 | 0.00 | 0.00 | 0.00 | 92 | 811.8 |
| 20260503020750 | -6 | 89 | 40.2 | 49.9 | 0.00 | 0.00 | 0.00 | 92 | 811.8 |
| 20260503020530 | -6 | 89 | 41.8 | 56.3 | 0.00 | 0.00 | 0.00 | 92 | 811.7 |
| 20260503020420 | -6 | 92 | 41.8 | 49.9 | 0.00 | 0.00 | 0.00 | 92 | 811.7 |
| 20260503020310 | -6 | 92 | 43.5 | 51.5 | 0.00 | 0.00 | 0.00 | 92 | 811.8 |
| 20260503020201 | -6 | 98 | 43.5 | 51.5 | 0.00 | 0.00 | 0.00 | 93 | 811.8 |
| 20260503020050 | -6 | 91 | 43.5 | 56.3 | 0.00 | 0.00 | 0.00 | 93 | 811.8 |
| 20260503015942 | -6 | 98 | 41.8 | 56.3 | 0.00 | 0.00 | 0.00 | 93 | 811.8 |
| 20260503015721 | -6 | 90 | 43.5 | 49.9 | 0.00 | 0.00 | 0.00 | 93 | 811.8 |
| 20260503015500 | -6 | 93 | 43.5 | 54.7 | 0.00 | 0.00 | 0.00 | 93 | 811.8 |
| 20260503015350 | -6 | 92 | 43.5 | 53.1 | 0.00 | 0.00 | 0.00 | 93 | 811.7 |
| 20260503015240 | -6 | 90 | 38.6 | 61.2 | 0.00 | 0.00 | 0.00 | 93 | 811.7 |
| 20260503015131 | -6 | 95 | 41.8 | 56.3 | 0.00 | 0.00 | 0.00 | 93 | 811.8 |
| 20260503015020 | -6 | 95 | 40.2 | 57.9 | 0.00 | 0.00 | 0.00 | 93 | 811.9 |
| 20260503014910 | -6 | 97 | 41.8 | 54.7 | 0.00 | 0.00 | 0.00 | 93 | 812.1 |
| 20260503014800 | -6 | 94 | 41.8 | 57.9 | 0.00 | 0.00 | 0.00 | 93 | 811.8 |
| 20260503014651 | -6 | 94 | 43.5 | 54.7 | 0.00 | 0.00 | 0.00 | 94 | 811.8 |
| 20260503014540 | -6 | 95 | 40.2 | 51.5 | 0.00 | 0.00 | 0.00 | 94 | 811.8 |
| 20260503014321 | -6 | 110 | 38.6 | 59.5 | 0.00 | 0.00 | 0.00 | 93 | 811.8 |
| 20260503014100 | -6 | 91 | 40.2 | 49.9 | 0.00 | 0.00 | 0.00 | 94 | 811.8 |
| 20260503013951 | -6 | 92 | 41.8 | 48.3 | 0.00 | 0.00 | 0.00 | 96 | 811.8 |
| 20260503013840 | -6 | 94 | 45.1 | 56.3 | 0.00 | 0.00 | 0.00 | 96 | 811.9 |
| 20260503013620 | -6 | 88 | 43.5 | 54.7 | 0.00 | 0.00 | 0.00 | 96 | 811.7 |
| 20260503013511 | -6 | 84 | 41.8 | 59.5 | 0.00 | 0.00 | 0.00 | 96 | 811.7 |
| 20260503013406 | -6 | 92 | 38.6 | 59.5 | 0.00 | 0.00 | 0.00 | 96 | 811.8 |
| 20260503013250 | -6 | 90 | 43.5 | 56.3 | 0.00 | 0.00 | 0.00 | 96 | 811.8 |
| 20260503013144 | -6 | 85 | 40.2 | 56.3 | 0.00 | 0.00 | 0.00 | 96 | 811.8 |
| 20260503013030 | -6 | 87 | 41.8 | 49.9 | 0.00 | 0.00 | 0.00 | 96 | 811.8 |
| 20260503012920 | -6 | 88 | 40.2 | 53.1 | 0.00 | 0.00 | 0.00 | 97 | 811.8 |
| 20260503012811 | -6 | 86 | 41.8 | 54.7 | 0.00 | 0.00 | 0.00 | 97 | 811.8 |
| 20260503012700 | -6 | 92 | 40.2 | 56.3 | 0.00 | 0.00 | 0.00 | 96 | 811.8 |
| 20260503012550 | -6 | 86 | 40.2 | 51.5 | 0.00 | 0.00 | 0.00 | 96 | 811.8 |
| 20260503012330 | -6 | 89 | 40.2 | 54.7 | 0.00 | 0.00 | 0.00 | 97 | 811.8 |
| 20260503012221 | -6 | 95 | 35.4 | 48.3 | 0.00 | 0.00 | 0.00 | 96 | 811.9 |
| 20260503012110 | -6 | 85 | 33.8 | 45.1 | 0.00 | 0.00 | 0.00 | 96 | 811.8 |
| 20260503012000 | -6 | 98 | 30.6 | 54.7 | 0.00 | 0.00 | 0.00 | 96 | 811.9 |
| 20260503011851 | -6 | 91 | 37.0 | 49.9 | 0.00 | 0.00 | 0.00 | 97 | 811.9 |
| 20260503011740 | -6 | 103 | 32.2 | 48.3 | 0.00 | 0.00 | 0.00 | 97 | 811.8 |
| 20260503011630 | -6 | 79 | 38.6 | 51.5 | 0.00 | 0.00 | 0.00 | 97 | 811.8 |
| 20260503011520 | -6 | 79 | 33.8 | 45.1 | 0.00 | 0.00 | 0.00 | 97 | 811.8 |
| 20260503011300 | -6 | 70 | 35.4 | 41.8 | 0.00 | 0.00 | 0.00 | 97 | 811.8 |
| 20260503011150 | -6 | 88 | 33.8 | 45.1 | 0.00 | 0.00 | 0.00 | 96 | 811.7 |
| 20260503011040 | -6 | 90 | 35.4 | 53.1 | 0.00 | 0.00 | 0.00 | 96 | 812.1 |
| 20260503010930 | -6 | 85 | 33.8 | 53.1 | 0.00 | 0.00 | 0.00 | 96 | 811.9 |
| 20260503010823 | -6 | 87 | 33.8 | 49.9 | 0.00 | 0.00 | 0.00 | 96 | 812.1 |
| 20260503010710 | -6 | 93 | 33.8 | 53.1 | 0.00 | 0.00 | 0.00 | 96 | 812.1 |
| 20260503010600 | -6 | 82 | 33.8 | 43.5 | 0.00 | 0.00 | 0.00 | 97 | 811.8 |
| 20260503010230 | -6 | 87 | 37.0 | 40.2 | 0.00 | 0.00 | 0.00 | 97 | 811.8 |
| 20260503010010 | -6 | 93 | 37.0 | 51.5 | 0.00 | 0.00 | 0.00 | 96 | 812.1 |
| 20260503005900 | -6 | 92 | 37.0 | 49.9 | 0.00 | 0.00 | 0.00 | 96 | 811.8 |
| 20260503005750 | -6 | 93 | 41.8 | 53.1 | 0.00 | 0.00 | 0.00 | 96 | 811.8 |
| 20260503005640 | -6 | 95 | 40.2 | 59.5 | 0.00 | 0.00 | 0.00 | 96 | 811.7 |
| 20260503005310 | -6 | 88 | 41.8 | 53.1 | 0.00 | 0.00 | 0.00 | 97 | 811.8 |
| 20260503005200 | -6 | 93 | 43.5 | 59.5 | 0.00 | 0.00 | 0.00 | 97 | 811.8 |
| 20260503005050 | -6 | 93 | 41.8 | 56.3 | 0.00 | 0.00 | 0.00 | 97 | 811.8 |
| 20260503004940 | -6 | 88 | 45.1 | 59.5 | 0.00 | 0.00 | 0.00 | 97 | 811.8 |
| 20260503004720 | -6 | 90 | 41.8 | 59.5 | 0.00 | 0.00 | 0.00 | 98 | 811.8 |
| 20260503004500 | -6 | 85 | 45.1 | 54.7 | 0.00 | 0.00 | 0.00 | 98 | 811.8 |
| 20260503004350 | -6 | 89 | 45.1 | 54.7 | 0.00 | 0.00 | 0.00 | 98 | 811.8 |
| 20260503004240 | -6 | 88 | 46.7 | 57.9 | 0.00 | 0.00 | 0.00 | 98 | 811.5 |
| 20260503004130 | -6 | 84 | 46.7 | 56.3 | 0.00 | 0.00 | 0.00 | 98 | 811.8 |
| 20260503003910 | -6 | 83 | 48.3 | 54.7 | 0.00 | 0.00 | 0.00 | 98 | 811.4 |
| 20260503003800 | -6 | 91 | 46.7 | 62.8 | 0.00 | 0.00 | 0.00 | 98 | 811.8 |
| 20260503003541 | -6 | 87 | 43.5 | 64.4 | 0.00 | 0.00 | 0.00 | 98 | 811.7 |
| 20260503003430 | -6 | 87 | 45.1 | 53.1 | 0.00 | 0.00 | 0.00 | 98 | 811.7 |
| 20260503003320 | -6 | 87 | 43.5 | 49.9 | 0.00 | 0.00 | 0.00 | 99 | 811.8 |
| 20260503003100 | -6 | 90 | 46.7 | 54.7 | 0.00 | 0.00 | 0.00 | 99 | 811.8 |
| 20260503002950 | -6 | 86 | 45.1 | 56.3 | 0.00 | 0.00 | 0.00 | 99 | 811.8 |
| 20260503002840 | -6 | 85 | 40.2 | 46.7 | 0.00 | 0.00 | 0.00 | 98 | 811.8 |
| 20260503002730 | -6 | 90 | 45.1 | 53.1 | 0.00 | 0.00 | 0.00 | 98 | 811.8 |
| 20260503002620 | -6 | 86 | 40.2 | 51.5 | 0.00 | 0.00 | 0.00 | 98 | 811.8 |
| 20260503002510 | -6 | 99 | 41.8 | 56.3 | 0.00 | 0.00 | 0.00 | 98 | 811.8 |
| 20260503002400 | -6 | 95 | 41.8 | 59.5 | 0.00 | 0.00 | 0.00 | 98 | 811.8 |
| 20260503002141 | -6 | 84 | 38.6 | 46.7 | 0.00 | 0.00 | 0.00 | 99 | 811.8 |
| 20260503002030 | -6 | 86 | 41.8 | 53.1 | 0.00 | 0.00 | 0.00 | 98 | 811.9 |
| 20260503001920 | -6 | 97 | 37.0 | 45.1 | 0.00 | 0.00 | 0.00 | 98 | 812.2 |
| 20260503001811 | -6 | 97 | 38.6 | 54.7 | 0.00 | 0.00 | 0.00 | 98 | 811.8 |
| 20260503001700 | -6 | 97 | 38.6 | 48.3 | 0.00 | 0.00 | 0.00 | 98 | 811.9 |
| 20260503001550 | -6 | 96 | 40.2 | 54.7 | 0.00 | 0.00 | 0.00 | 98 | 812.1 |
| 20260503001440 | -6 | 90 | 38.6 | 48.3 | 0.00 | 0.00 | 0.00 | 99 | 812.1 |
| 20260503001220 | -6 | 99 | 38.6 | 49.9 | 0.00 | 0.00 | 0.00 | 99 | 812.1 |
| 20260503001110 | -6 | 105 | 37.0 | 53.1 | 0.00 | 0.00 | 0.00 | 99 | 812.2 |
| 20260503001000 | -6 | 98 | 35.4 | 54.7 | 0.00 | 0.00 | 0.00 | 99 | 812.1 |
| 20260503000850 | -6 | 95 | 40.2 | 46.7 | 0.00 | 0.00 | 0.00 | 99 | 812.2 |
| 20260503000740 | -6 | 96 | 43.5 | 51.5 | 0.00 | 0.00 | 0.00 | 99 | 812.2 |
| 20260503000632 | -6 | 91 | 38.6 | 53.1 | 0.00 | 0.00 | 0.00 | 99 | 811.9 |
| 20260503000520 | -6 | 95 | 45.1 | 56.3 | 0.00 | 0.00 | 0.00 | 99 | 811.9 |
| 20260503000301 | -6 | 92 | 43.5 | 54.7 | 0.00 | 0.00 | 0.00 | 99 | 812.1 |
| 20260503000151 | -6 | 105 | 45.1 | 69.2 | 0.00 | 0.00 | 0.00 | 99 | 811.8 |
| 20260503000041 | -6 | 91 | 46.7 | 61.2 | 0.00 | 0.00 | 0.00 | 10 | 811.8 |
| 20260502235820 | -6 | 90 | 43.5 | 54.7 | 0.00 | 0.00 | 0.00 | 10 | 811.8 |
| 20260502235710 | -6 | 92 | 45.1 | 59.5 | 0.00 | 0.00 | 0.00 | 10 | 811.8 |
| 20260502235600 | -6 | 95 | 43.5 | 61.2 | 0.00 | 0.00 | 0.00 | 10 | 811.8 |
| 20260502235230 | -6 | 90 | 45.1 | 56.3 | 0.00 | 0.00 | 0.00 | 10 | 812.1 |
| 20260502234901 | -6 | 89 | 41.8 | 56.3 | 0.00 | 0.00 | 0.00 | 10 | 811.8 |
| 20260502234640 | -6 | 109 | 37.0 | 54.7 | 0.00 | 0.00 | 0.00 | 10 | 812.2 |
| 20260502234531 | -6 | 98 | 43.5 | 62.8 | 0.00 | 0.00 | 0.00 | 10 | 811.7 |
| 20260502234420 | -6 | 97 | 41.8 | 62.8 | 0.00 | 0.00 | 0.00 | 10 | 812.1 |
| 20260502234310 | -6 | 86 | 43.5 | 53.1 | 0.00 | 0.00 | 0.00 | 10 | 811.9 |
| 20260502234200 | -6 | 85 | 48.3 | 59.5 | 0.00 | 0.00 | 0.00 | 10 | 811.7 |
| 20260502234050 | -6 | 92 | 48.3 | 61.2 | 0.00 | 0.00 | 0.00 | 10 | 811.8 |
| 20260502233940 | -6 | 88 | 48.3 | 57.9 | 0.00 | 0.00 | 0.00 | 10 | 811.8 |
| 20260502233830 | -6 | 91 | 43.5 | 54.7 | 0.00 | 0.00 | 0.00 | 10 | 812.1 |
| 20260502233720 | -6 | 88 | 40.2 | 46.7 | 0.00 | 0.00 | 0.00 | 10 | 811.9 |
| 20260502233610 | -6 | 94 | 41.8 | 61.2 | 0.00 | 0.00 | 0.00 | 10 | 811.8 |
| 20260502233500 | -6 | 85 | 32.2 | 41.8 | 0.00 | 0.00 | 0.00 | 10 | 811.8 |
| 20260502233350 | -6 | 80 | 33.8 | 46.7 | 0.00 | 0.00 | 0.00 | 10 | 811.8 |
| 20260502233240 | -6 | 93 | 30.6 | 46.7 | 0.00 | 0.00 | 0.00 | 10 | 811.8 |
| 20260502233130 | -6 | 79 | 33.8 | 51.5 | 0.00 | 0.00 | 0.00 | 10 | 811.8 |
| 20260502233020 | -6 | 75 | 35.4 | 43.5 | 0.00 | 0.00 | 0.00 | 10 | 811.8 |
| 20260502232910 | -6 | 74 | 37.0 | 45.1 | 0.00 | 0.00 | 0.00 | 10 | 811.8 |
| 20260502232800 | -6 | 78 | 30.6 | 46.7 | 0.00 | 0.00 | 0.00 | 10 | 811.8 |
| 20260502232650 | -6 | 75 | 33.8 | 41.8 | 0.00 | 0.00 | 0.00 | 10 | 811.9 |
| 20260502232540 | -6 | 70 | 37.0 | 45.1 | 0.00 | 0.00 | 0.00 | 10 | 812.2 |